Time,TemperatureF,DewpointF,PressureIn,WindDirection,WindDirectionDegrees,WindSpeedMPH,WindSpeedGustMPH,Humidity,HourlyPrecipIn,Conditions,Clouds,dailyrainin,SoftwareType,DateUTC
2013-04-21 00:07:00,50.5,26.2,30.35,North,360,0.0,0.0,39,0.00,,FEW250,0.00,VWS V14.01,2013-04-21 04:07:00,
2013-04-21 00:08:00,50.3,26.0,30.36,North,360,0.0,0.0,39,0.00,,FEW250,0.00,VWS V14.01,2013-04-21 04:08:00,
2013-04-21 00:14:00,50.2,25.9,30.36,North,360,0.0,0.0,39,0.00,,FEW250,0.00,VWS V14.01,2013-04-21 04:14:00,
2013-04-21 00:26:00,49.8,26.2,30.36,North,360,0.0,0.0,40,0.00,,FEW250,0.00,VWS V14.01,2013-04-21 04:26:00,
2013-04-21 00:28:00,49.7,26.8,30.37,North,360,0.0,0.0,41,0.00,,FEW250,0.00,VWS V14.01,2013-04-21 04:28:00,
2013-04-21 00:33:00,49.5,26.6,30.37,North,360,0.0,0.0,41,0.00,,FEW250,0.00,VWS V14.01,2013-04-21 04:33:00,
2013-04-21 00:38:00,49.5,26.6,30.37,North,360,0.0,0.0,41,0.00,,FEW250,0.00,VWS V14.01,2013-04-21 04:38:00,
2013-04-21 00:43:00,49.3,25.8,30.37,North,360,0.0,0.0,40,0.00,,FEW250,0.00,VWS V14.01,2013-04-21 04:43:00,
2013-04-21 00:48:00,49.1,25.6,30.38,North,360,0.0,0.0,40,0.00,,FEW250,0.00,VWS V14.01,2013-04-21 04:48:00,
2013-04-21 00:53:00,49.0,26.1,30.38,North,360,0.0,0.0,41,0.00,,FEW250,0.00,VWS V14.01,2013-04-21 04:53:00,
2013-04-21 00:58:00,48.9,27.3,30.38,North,360,0.0,0.0,43,0.00,,FEW250,0.00,VWS V14.01,2013-04-21 04:58:00,
2013-04-21 01:07:00,48.8,26.0,30.38,North,360,0.0,0.0,41,0.00,,FEW250,0.00,VWS V14.01,2013-04-21 05:07:00,
2013-04-21 01:13:00,48.5,25.7,30.38,North,360,0.0,0.0,41,0.00,,FEW250,0.00,VWS V14.01,2013-04-21 05:13:00,
2013-04-21 01:18:00,48.5,25.7,30.38,North,360,0.0,0.0,41,0.00,,FEW250,0.00,VWS V14.01,2013-04-21 05:18:00,
2013-04-21 01:23:00,48.4,25.6,30.39,North,360,0.0,0.0,41,0.00,,FEW250,0.00,VWS V14.01,2013-04-21 05:23:00,
2013-04-21 01:29:00,48.4,26.8,30.39,North,360,0.0,0.0,43,0.00,,FEW250,0.00,VWS V14.01,2013-04-21 05:29:00,
2013-04-21 01:33:00,48.1,25.3,30.39,North,360,0.0,0.0,41,0.00,,FEW250,0.00,VWS V14.01,2013-04-21 05:33:00,
2013-04-21 01:39:00,48.1,25.3,30.39,North,360,0.0,0.0,41,0.00,,FEW250,0.00,VWS V14.01,2013-04-21 05:39:00,
2013-04-21 01:43:00,48.0,25.2,30.40,North,360,0.0,0.0,41,0.00,,FEW250,0.00,VWS V14.01,2013-04-21 05:43:00,
2013-04-21 01:48:00,47.9,25.8,30.39,North,360,0.0,0.0,42,0.00,,FEW250,0.00,VWS V14.01,2013-04-21 05:48:00,
2013-04-21 01:53:00,47.9,25.1,30.40,North,360,0.0,0.0,41,0.00,,FEW250,0.00,VWS V14.01,2013-04-21 05:53:00,
2013-04-21 01:58:00,47.8,25.0,30.40,North,360,0.0,0.0,41,0.00,,FEW250,0.00,VWS V14.01,2013-04-21 05:58:00,
2013-04-21 02:07:00,47.7,26.2,30.40,North,360,0.0,0.0,43,0.00,,FEW250,0.00,VWS V14.01,2013-04-21 06:07:00,
2013-04-21 02:13:00,47.5,25.4,30.40,North,360,0.0,0.0,42,0.00,,FEW250,0.00,VWS V14.01,2013-04-21 06:13:00,
2013-04-21 02:23:00,47.3,25.8,30.40,North,360,0.0,0.0,43,0.00,,FEW250,0.00,VWS V14.01,2013-04-21 06:23:00,
2013-04-21 02:29:00,47.2,25.1,30.40,North,360,0.0,0.0,42,0.00,,FEW250,0.00,VWS V14.01,2013-04-21 06:29:00,
2013-04-21 02:34:00,47.2,25.7,30.40,North,360,0.0,0.0,43,0.00,,FEW250,0.00,VWS V14.01,2013-04-21 06:34:00,
2013-04-21 02:39:00,47.1,25.0,30.40,North,360,0.0,0.0,42,0.00,,FEW250,0.00,VWS V14.01,2013-04-21 06:39:00,
2013-04-21 02:44:00,47.0,24.9,30.41,North,360,0.0,0.0,42,0.00,,FEW250,0.00,VWS V14.01,2013-04-21 06:44:00,
2013-04-21 02:49:00,46.9,24.9,30.41,North,360,0.0,0.0,42,0.00,,FEW250,0.00,VWS V14.01,2013-04-21 06:49:00,
2013-04-21 02:59:00,46.7,24.1,30.41,North,360,0.0,0.0,41,0.00,,FEW250,0.00,VWS V14.01,2013-04-21 06:59:00,
2013-04-21 03:07:00,46.7,24.7,30.42,North,360,0.0,0.0,42,0.00,,FEW250,0.00,VWS V14.01,2013-04-21 07:07:00,
2013-04-21 03:13:00,46.5,25.7,30.42,North,360,0.0,0.0,44,0.00,,FEW250,0.00,VWS V14.01,2013-04-21 07:13:00,
2013-04-21 03:18:00,46.5,25.1,30.42,North,360,0.0,0.0,43,0.00,,FEW250,0.00,VWS V14.01,2013-04-21 07:18:00,
2013-04-21 03:23:00,46.4,24.4,30.43,North,360,0.0,0.0,42,0.00,,FEW250,0.00,VWS V14.01,2013-04-21 07:23:00,
2013-04-21 03:28:00,46.3,24.3,30.43,North,360,0.0,0.0,42,0.00,,FEW250,0.00,VWS V14.01,2013-04-21 07:28:00,
2013-04-21 03:33:00,46.1,24.7,30.43,North,360,0.0,0.0,43,0.00,,FEW250,0.00,VWS V14.01,2013-04-21 07:33:00,
2013-04-21 03:38:00,46.1,24.1,30.43,North,360,0.0,0.0,42,0.00,,FEW250,0.00,VWS V14.01,2013-04-21 07:38:00,
2013-04-21 03:43:00,46.0,25.8,30.43,North,360,0.0,0.0,45,0.00,,FEW250,0.00,VWS V14.01,2013-04-21 07:43:00,
2013-04-21 03:48:00,45.9,25.7,30.43,North,360,0.0,0.0,45,0.00,,FEW250,0.00,VWS V14.01,2013-04-21 07:48:00,
2013-04-21 03:54:00,45.8,26.2,30.44,North,360,0.0,0.0,46,0.00,,FEW250,0.00,VWS V14.01,2013-04-21 07:54:00,
2013-04-21 03:59:00,45.7,25.5,30.44,North,360,0.0,0.0,45,0.00,,FEW250,0.00,VWS V14.01,2013-04-21 07:59:00,
2013-04-21 04:07:00,45.6,25.4,30.44,North,360,0.0,0.0,45,0.00,,FEW250,0.00,VWS V14.01,2013-04-21 08:07:00,
2013-04-21 04:14:00,45.5,25.9,30.45,North,360,0.0,0.0,46,0.00,,FEW250,0.00,VWS V14.01,2013-04-21 08:14:00,
2013-04-21 04:26:00,45.2,25.6,30.45,North,360,0.0,0.0,46,0.00,,FEW250,0.00,VWS V14.01,2013-04-21 08:26:00,
2013-04-21 04:33:00,45.0,24.9,30.45,North,360,0.0,0.0,45,0.00,,FEW250,0.00,VWS V14.01,2013-04-21 08:33:00,
2013-04-21 04:39:00,44.9,24.8,30.46,North,360,0.0,0.0,45,0.00,,FEW250,0.00,VWS V14.01,2013-04-21 08:39:00,
2013-04-21 04:49:00,44.6,25.1,30.46,North,360,0.0,0.0,46,0.00,,FEW250,0.00,VWS V14.01,2013-04-21 08:49:00,
2013-04-21 04:54:00,44.5,24.4,30.46,North,360,0.0,0.0,45,0.00,,FEW250,0.00,VWS V14.01,2013-04-21 08:54:00,
2013-04-21 04:59:00,44.4,24.9,30.47,North,360,0.0,0.0,46,0.00,,FEW250,0.00,VWS V14.01,2013-04-21 08:59:00,
2013-04-21 05:07:00,44.3,25.4,30.47,North,360,0.0,0.0,47,0.00,,FEW250,0.00,VWS V14.01,2013-04-21 09:07:00,
2013-04-21 05:14:00,44.1,26.2,30.48,North,360,0.0,0.0,49,0.00,,FEW250,0.00,VWS V14.01,2013-04-21 09:14:00,
2013-04-21 05:19:00,44.0,26.1,30.48,North,360,0.0,0.0,49,0.00,,FEW250,0.00,VWS V14.01,2013-04-21 09:19:00,
2013-04-21 05:24:00,43.9,26.6,30.48,North,360,0.0,0.0,50,0.00,,FEW250,0.00,VWS V14.01,2013-04-21 09:24:00,
2013-04-21 05:29:00,43.7,25.9,30.49,North,360,0.0,0.0,49,0.00,,FEW250,0.00,VWS V14.01,2013-04-21 09:29:00,
2013-04-21 05:34:00,43.4,24.5,30.49,North,360,0.0,0.0,47,0.00,,FEW250,0.00,VWS V14.01,2013-04-21 09:34:00,
2013-04-21 05:39:00,43.2,24.9,30.50,North,360,0.0,0.0,48,0.00,,FEW250,0.00,VWS V14.01,2013-04-21 09:39:00,
2013-04-21 05:49:00,43.0,25.2,30.50,North,360,0.0,0.0,49,0.00,,FEW250,0.00,VWS V14.01,2013-04-21 09:49:00,
2013-04-21 05:54:00,43.0,25.2,30.51,North,360,0.0,0.0,49,0.00,,FEW250,0.00,VWS V14.01,2013-04-21 09:54:00,
2013-04-21 05:59:00,42.9,25.1,30.51,North,360,0.0,0.0,49,0.00,,CLR,0.00,VWS V14.01,2013-04-21 09:59:00,
2013-04-21 06:09:00,43.0,26.2,30.52,North,360,0.0,0.0,51,0.00,,CLR,0.00,VWS V14.01,2013-04-21 10:09:00,
2013-04-21 06:18:00,42.9,25.6,30.52,North,360,0.0,0.0,50,0.00,,CLR,0.00,VWS V14.01,2013-04-21 10:18:00,
2013-04-21 06:24:00,42.9,26.6,30.52,North,360,0.0,0.0,52,0.00,,CLR,0.00,VWS V14.01,2013-04-21 10:24:00,
2013-04-21 06:29:00,42.8,25.5,30.53,North,360,0.0,0.0,50,0.00,,CLR,0.00,VWS V14.01,2013-04-21 10:29:00,
2013-04-21 06:34:00,42.7,25.0,30.53,North,360,0.0,0.0,49,0.00,,CLR,0.00,VWS V14.01,2013-04-21 10:34:00,
2013-04-21 06:39:00,42.8,24.5,30.53,North,360,0.0,0.0,48,0.00,,CLR,0.00,VWS V14.01,2013-04-21 10:39:00,
2013-04-21 06:48:00,42.8,26.0,30.54,North,360,0.0,0.0,51,0.00,,CLR,0.00,VWS V14.01,2013-04-21 10:48:00,
2013-04-21 06:53:00,42.8,26.5,30.55,North,360,0.0,0.0,52,0.00,,CLR,0.00,VWS V14.01,2013-04-21 10:53:00,
2013-04-21 06:59:00,42.6,24.3,30.55,North,360,0.0,0.0,48,0.00,,FEW130,0.00,VWS V14.01,2013-04-21 10:59:00,
2013-04-21 07:07:00,42.8,25.5,30.55,North,360,0.0,0.0,50,0.00,,FEW130,0.00,VWS V14.01,2013-04-21 11:07:00,
2013-04-21 07:14:00,42.8,25.0,30.56,North,360,0.0,0.0,49,0.00,,FEW130,0.00,VWS V14.01,2013-04-21 11:14:00,
2013-04-21 07:19:00,42.8,25.0,30.56,North,360,0.0,0.0,49,0.00,,FEW130,0.00,VWS V14.01,2013-04-21 11:19:00,
2013-04-21 07:24:00,42.8,23.4,30.56,North,360,0.0,0.0,46,0.00,,FEW130,0.00,VWS V14.01,2013-04-21 11:24:00,
2013-04-21 07:29:00,42.9,25.1,30.57,North,360,0.0,0.0,49,0.00,,FEW130,0.00,VWS V14.01,2013-04-21 11:29:00,
2013-04-21 07:38:00,43.1,23.7,30.57,North,360,0.0,0.0,46,0.00,,FEW130,0.00,VWS V14.01,2013-04-21 11:38:00,
2013-04-21 07:44:00,43.2,23.2,30.58,North,360,0.0,0.0,45,0.00,,FEW130,0.00,VWS V14.01,2013-04-21 11:44:00,
2013-04-21 07:49:00,43.1,23.7,30.57,North,360,0.0,0.0,46,0.00,,FEW130,0.00,VWS V14.01,2013-04-21 11:49:00,
2013-04-21 07:54:00,43.0,21.9,30.58,North,360,0.0,0.0,43,0.00,,FEW130,0.00,VWS V14.01,2013-04-21 11:54:00,
2013-04-21 07:59:00,43.0,24.2,30.58,North,360,0.0,0.0,47,0.00,,BKN200,0.00,VWS V14.01,2013-04-21 11:59:00,
2013-04-21 08:07:00,43.2,24.4,30.58,North,360,0.0,0.0,47,0.00,,BKN200,0.00,VWS V14.01,2013-04-21 12:07:00,
2013-04-21 08:14:00,43.4,22.3,30.59,North,360,0.0,0.0,43,0.00,,BKN200,0.00,VWS V14.01,2013-04-21 12:14:00,
2013-04-21 08:19:00,43.7,22.5,30.59,North,360,0.0,0.0,43,0.00,,BKN200,0.00,VWS V14.01,2013-04-21 12:19:00,
2013-04-21 08:24:00,43.6,23.6,30.58,North,360,0.0,0.0,45,0.00,,BKN200,0.00,VWS V14.01,2013-04-21 12:24:00,
2013-04-21 08:29:00,43.5,22.4,30.59,North,360,0.0,0.0,43,0.00,,BKN200,0.00,VWS V14.01,2013-04-21 12:29:00,
2013-04-21 08:34:00,44.1,22.9,30.59,North,360,0.0,0.0,43,0.00,,BKN200,0.00,VWS V14.01,2013-04-21 12:34:00,
2013-04-21 08:39:00,44.3,22.5,30.59,North,360,0.0,0.0,42,0.00,,BKN200,0.00,VWS V14.01,2013-04-21 12:39:00,
2013-04-21 08:44:00,44.0,22.2,30.59,North,360,0.0,0.0,42,0.00,,BKN200,0.00,VWS V14.01,2013-04-21 12:44:00,
2013-04-21 08:49:00,44.3,22.5,30.59,North,360,0.0,0.0,42,0.00,,BKN200,0.00,VWS V14.01,2013-04-21 12:49:00,
2013-04-21 08:58:00,45.4,24.1,30.59,North,360,0.0,0.0,43,0.00,,BKN200,0.00,VWS V14.01,2013-04-21 12:58:00,
2013-04-21 09:07:00,46.5,24.5,30.59,North,360,0.0,0.0,42,0.00,,BKN200,0.00,VWS V14.01,2013-04-21 13:07:00,
2013-04-21 09:13:00,46.2,23.6,30.59,North,360,0.0,0.0,41,0.00,,BKN200,0.00,VWS V14.01,2013-04-21 13:13:00,
2013-04-21 09:18:00,46.6,25.2,30.59,North,360,0.0,0.0,43,0.00,,BKN200,0.00,VWS V14.01,2013-04-21 13:18:00,
2013-04-21 09:25:00,46.1,23.5,30.60,North,360,0.0,0.0,41,0.00,,BKN200,0.00,VWS V14.01,2013-04-21 13:25:00,
2013-04-21 09:34:00,46.3,23.7,30.60,North,360,0.0,0.0,41,0.00,,BKN200,0.00,VWS V14.01,2013-04-21 13:34:00,
2013-04-21 09:39:00,45.9,24.0,30.60,North,360,0.0,0.0,42,0.00,,BKN200,0.00,VWS V14.01,2013-04-21 13:39:00,
2013-04-21 09:44:00,45.5,22.4,30.60,North,360,0.0,0.0,40,0.00,,BKN200,0.00,VWS V14.01,2013-04-21 13:44:00,
2013-04-21 09:49:00,45.7,22.5,30.60,North,360,0.0,0.0,40,0.00,,BKN200,0.00,VWS V14.01,2013-04-21 13:49:00,
2013-04-21 09:54:00,45.9,24.0,30.60,North,360,0.0,0.0,42,0.00,,BKN200,0.00,VWS V14.01,2013-04-21 13:54:00,
2013-04-21 10:07:00,46.2,22.3,30.60,North,360,0.0,0.0,39,0.00,,BKN200,0.00,VWS V14.01,2013-04-21 14:07:00,
2013-04-21 10:14:00,46.3,20.4,30.61,North,360,0.0,0.0,35,0.00,,BKN200,0.00,VWS V14.01,2013-04-21 14:14:00,
2013-04-21 10:19:00,46.2,20.3,30.61,North,360,0.0,0.0,35,0.00,,BKN200,0.00,VWS V14.01,2013-04-21 14:19:00,
2013-04-21 10:24:00,46.8,22.2,30.61,North,360,0.0,0.0,37,0.00,,BKN200,0.00,VWS V14.01,2013-04-21 14:24:00,
2013-04-21 10:29:00,46.9,22.3,30.60,North,360,0.0,0.0,37,0.00,,BKN200,0.00,VWS V14.01,2013-04-21 14:29:00,
2013-04-21 10:34:00,46.8,20.8,30.61,North,360,0.0,0.0,35,0.00,,BKN200,0.00,VWS V14.01,2013-04-21 14:34:00,
2013-04-21 10:39:00,47.5,24.1,30.61,North,360,0.0,0.0,40,0.00,,BKN200,0.00,VWS V14.01,2013-04-21 14:39:00,
2013-04-21 10:44:00,47.3,22.7,30.61,North,360,0.0,0.0,37,0.00,,BKN200,0.00,VWS V14.01,2013-04-21 14:44:00,
2013-04-21 10:49:00,47.4,22.8,30.61,North,360,0.0,0.0,37,0.00,,BKN200,0.00,VWS V14.01,2013-04-21 14:49:00,
2013-04-21 10:54:00,47.6,22.2,30.61,North,360,0.0,0.0,36,0.00,,BKN200,0.00,VWS V14.01,2013-04-21 14:54:00,
2013-04-21 11:07:00,47.6,22.2,30.61,North,360,0.0,0.0,36,0.00,,BKN200,0.00,VWS V14.01,2013-04-21 15:07:00,
2013-04-21 11:14:00,47.8,20.3,30.61,North,360,0.0,0.0,33,0.00,,BKN200,0.00,VWS V14.01,2013-04-21 15:14:00,
2013-04-21 11:19:00,48.0,22.6,30.61,North,360,0.0,0.0,36,0.00,,BKN200,0.00,VWS V14.01,2013-04-21 15:19:00,
2013-04-21 11:24:00,48.7,24.6,30.61,North,360,0.0,0.0,39,0.00,,BKN200,0.00,VWS V14.01,2013-04-21 15:24:00,
2013-04-21 11:33:00,48.7,20.3,30.61,North,360,0.0,0.0,32,0.00,,BKN200,0.00,VWS V14.01,2013-04-21 15:33:00,
2013-04-21 11:38:00,48.9,21.2,30.61,North,360,0.0,0.0,33,0.00,,BKN200,0.00,VWS V14.01,2013-04-21 15:38:00,
2013-04-21 11:44:00,49.4,23.1,30.61,North,360,0.0,0.0,35,0.00,,BKN200,0.00,VWS V14.01,2013-04-21 15:44:00,
2013-04-21 11:54:00,48.4,19.2,30.60,North,360,0.0,0.0,31,0.00,,BKN200,0.00,VWS V14.01,2013-04-21 15:54:00,
2013-04-21 11:59:00,49.1,21.4,30.60,North,360,0.0,0.0,33,0.00,,BKN200,0.00,VWS V14.01,2013-04-21 15:59:00,
2013-04-21 12:07:00,49.5,23.2,30.60,North,360,0.0,0.0,35,0.00,,BKN200,0.00,VWS V14.01,2013-04-21 16:07:00,
2013-04-21 12:14:00,50.3,22.5,30.60,North,360,0.0,0.0,33,0.00,,BKN200,0.00,VWS V14.01,2013-04-21 16:14:00,
2013-04-21 12:19:00,49.9,23.6,30.60,North,360,0.0,0.0,35,0.00,,BKN200,0.00,VWS V14.01,2013-04-21 16:19:00,
2013-04-21 12:24:00,50.4,23.3,30.59,North,360,0.0,0.0,34,0.00,,BKN200,0.00,VWS V14.01,2013-04-21 16:24:00,
2013-04-21 12:29:00,50.6,24.9,30.59,North,360,0.0,0.0,36,0.00,,BKN200,0.00,VWS V14.01,2013-04-21 16:29:00,
2013-04-21 12:34:00,50.5,22.6,30.59,North,360,0.0,0.0,33,0.00,,BKN200,0.00,VWS V14.01,2013-04-21 16:34:00,
2013-04-21 12:39:00,51.2,24.7,30.59,North,360,0.0,0.0,35,0.00,,BKN200,0.00,VWS V14.01,2013-04-21 16:39:00,
2013-04-21 12:44:00,51.1,23.9,30.59,North,360,0.0,0.0,34,0.00,,BKN200,0.00,VWS V14.01,2013-04-21 16:44:00,
2013-04-21 12:49:00,50.9,23.8,30.59,North,360,0.0,0.0,34,0.00,,BKN200,0.00,VWS V14.01,2013-04-21 16:49:00,
2013-04-21 12:54:00,50.6,22.0,30.59,North,360,0.0,0.0,32,0.00,,BKN200,0.00,VWS V14.01,2013-04-21 16:54:00,
2013-04-21 12:59:00,51.5,24.3,30.59,North,360,0.0,0.0,34,0.00,,BKN250,0.00,VWS V14.01,2013-04-21 16:59:00,
2013-04-21 13:07:00,51.9,26.1,30.59,North,360,0.0,0.0,36,0.00,,BKN250,0.00,VWS V14.01,2013-04-21 17:07:00,
2013-04-21 13:14:00,51.5,23.5,30.58,North,360,0.0,0.0,33,0.00,,BKN250,0.00,VWS V14.01,2013-04-21 17:14:00,
2013-04-21 13:23:00,52.3,25.7,30.58,North,360,0.0,0.0,35,0.00,,BKN250,0.00,VWS V14.01,2013-04-21 17:23:00,
2013-04-21 13:29:00,52.5,25.9,30.57,North,360,0.0,0.0,35,0.00,,BKN250,0.00,VWS V14.01,2013-04-21 17:29:00,
2013-04-21 13:34:00,51.8,23.0,30.58,North,360,0.0,0.0,32,0.00,,BKN250,0.00,VWS V14.01,2013-04-21 17:34:00,
2013-04-21 13:39:00,52.0,23.2,30.58,North,360,0.0,0.0,32,0.00,,BKN250,0.00,VWS V14.01,2013-04-21 17:39:00,
2013-04-21 13:44:00,52.1,21.7,30.58,North,360,0.0,0.0,30,0.00,,BKN250,0.00,VWS V14.01,2013-04-21 17:44:00,
2013-04-21 13:49:00,52.4,24.3,30.57,North,360,0.0,0.0,33,0.00,,BKN250,0.00,VWS V14.01,2013-04-21 17:49:00,
2013-04-21 13:54:00,52.6,23.7,30.57,North,360,0.0,0.0,32,0.00,,BKN250,0.00,VWS V14.01,2013-04-21 17:54:00,
2013-04-21 13:59:00,52.5,24.4,30.57,North,360,0.0,0.0,33,0.00,,BKN250,0.00,VWS V14.01,2013-04-21 17:59:00,
2013-04-21 14:07:00,52.7,23.8,30.57,North,360,0.0,0.0,32,0.00,,BKN250,0.00,VWS V14.01,2013-04-21 18:07:00,
2013-04-21 14:14:00,51.6,21.2,30.57,North,360,0.0,0.0,30,0.00,,BKN250,0.00,VWS V14.01,2013-04-21 18:14:00,
2013-04-21 14:19:00,52.4,23.5,30.57,North,360,0.0,0.0,32,0.00,,BKN250,0.00,VWS V14.01,2013-04-21 18:19:00,
2013-04-21 14:26:00,52.6,24.5,30.57,North,360,0.0,0.0,33,0.00,,BKN250,0.00,VWS V14.01,2013-04-21 18:26:00,
2013-04-21 14:34:00,52.4,20.2,30.57,North,360,0.0,0.0,28,0.00,,BKN250,0.00,VWS V14.01,2013-04-21 18:34:00,
2013-04-21 14:39:00,52.3,21.0,30.57,North,360,0.0,0.0,29,0.00,,BKN250,0.00,VWS V14.01,2013-04-21 18:39:00,
2013-04-21 14:44:00,52.8,21.4,30.56,North,360,0.0,0.0,29,0.00,,BKN250,0.00,VWS V14.01,2013-04-21 18:44:00,
2013-04-21 14:49:00,53.6,23.0,30.56,North,360,0.0,0.0,30,0.00,,BKN250,0.00,VWS V14.01,2013-04-21 18:49:00,
2013-04-21 14:54:00,53.8,24.0,30.56,North,360,0.0,0.0,31,0.00,,BKN250,0.00,VWS V14.01,2013-04-21 18:54:00,
2013-04-21 14:59:00,53.3,21.9,30.56,North,360,0.0,0.0,29,0.00,,BKN250,0.00,VWS V14.01,2013-04-21 18:59:00,
2013-04-21 15:07:00,53.1,23.4,30.56,North,360,0.0,0.0,31,0.00,,BKN250,0.00,VWS V14.01,2013-04-21 19:07:00,
2013-04-21 15:14:00,52.9,23.2,30.55,North,360,0.0,0.0,31,0.00,,BKN250,0.00,VWS V14.01,2013-04-21 19:14:00,
2013-04-21 15:19:00,52.4,21.9,30.55,North,360,0.0,0.0,30,0.00,,BKN250,0.00,VWS V14.01,2013-04-21 19:19:00,
2013-04-21 15:24:00,52.7,21.3,30.54,North,360,0.0,0.0,29,0.00,,BKN250,0.00,VWS V14.01,2013-04-21 19:24:00,
2013-04-21 15:29:00,53.7,23.1,30.54,North,360,0.0,0.0,30,0.00,,BKN250,0.00,VWS V14.01,2013-04-21 19:29:00,
2013-04-21 15:34:00,53.4,20.2,30.54,North,360,0.0,0.0,27,0.00,,BKN250,0.00,VWS V14.01,2013-04-21 19:34:00,
2013-04-21 15:39:00,53.8,24.0,30.54,North,360,0.0,0.0,31,0.00,,BKN250,0.00,VWS V14.01,2013-04-21 19:39:00,
2013-04-21 15:49:00,54.0,22.5,30.54,North,360,0.0,0.0,29,0.00,,BKN250,0.00,VWS V14.01,2013-04-21 19:49:00,
2013-04-21 15:54:00,53.6,22.1,30.54,North,360,0.0,0.0,29,0.00,,BKN250,0.00,VWS V14.01,2013-04-21 19:54:00,
2013-04-21 15:59:00,53.7,24.7,30.54,North,360,0.0,0.0,32,0.00,,BKN250,0.00,VWS V14.01,2013-04-21 19:59:00,
2013-04-21 16:07:00,53.6,20.3,30.54,North,360,0.0,0.0,27,0.00,,BKN250,0.00,VWS V14.01,2013-04-21 20:07:00,
2013-04-21 16:14:00,53.5,21.1,30.54,North,360,0.0,0.0,28,0.00,,BKN250,0.00,VWS V14.01,2013-04-21 20:14:00,
2013-04-21 16:19:00,53.6,20.3,30.53,North,360,0.0,0.0,27,0.00,,BKN250,0.00,VWS V14.01,2013-04-21 20:19:00,
2013-04-21 16:24:00,53.8,19.6,30.53,North,360,0.0,0.0,26,0.00,,BKN250,0.00,VWS V14.01,2013-04-21 20:24:00,
2013-04-21 16:29:00,54.3,20.9,30.53,North,360,0.0,0.0,27,0.00,,BKN250,0.00,VWS V14.01,2013-04-21 20:29:00,
2013-04-21 16:34:00,54.4,24.5,30.53,North,360,0.0,0.0,31,0.00,,BKN250,0.00,VWS V14.01,2013-04-21 20:34:00,
2013-04-21 16:39:00,54.1,21.7,30.53,North,360,0.0,0.0,28,0.00,,BKN250,0.00,VWS V14.01,2013-04-21 20:39:00,
2013-04-21 16:44:00,53.8,20.5,30.53,North,360,0.0,0.0,27,0.00,,BKN250,0.00,VWS V14.01,2013-04-21 20:44:00,
2013-04-21 16:49:00,54.4,22.8,30.53,North,360,0.0,0.0,29,0.00,,BKN250,0.00,VWS V14.01,2013-04-21 20:49:00,
2013-04-21 16:54:00,54.0,21.6,30.53,North,360,0.0,0.0,28,0.00,,BKN250,0.00,VWS V14.01,2013-04-21 20:54:00,
2013-04-21 16:59:00,54.2,21.8,30.53,North,360,0.0,0.0,28,0.00,,BKN240,0.00,VWS V14.01,2013-04-21 20:59:00,
2013-04-21 17:07:00,54.1,23.4,30.53,North,360,0.0,0.0,30,0.00,,BKN240,0.00,VWS V14.01,2013-04-21 21:07:00,
2013-04-21 17:14:00,54.1,23.4,30.53,North,360,0.0,0.0,30,0.00,,BKN240,0.00,VWS V14.01,2013-04-21 21:14:00,
2013-04-21 17:19:00,53.5,22.0,30.53,North,360,0.0,0.0,29,0.00,,BKN240,0.00,VWS V14.01,2013-04-21 21:19:00,
2013-04-21 17:24:00,53.7,25.5,30.53,North,360,0.0,0.0,33,0.00,,BKN240,0.00,VWS V14.01,2013-04-21 21:24:00,
2013-04-21 17:29:00,53.6,25.4,30.53,North,360,0.0,0.0,33,0.00,,BKN240,0.00,VWS V14.01,2013-04-21 21:29:00,
2013-04-21 17:34:00,53.5,26.0,30.53,North,360,0.0,0.0,34,0.00,,BKN240,0.00,VWS V14.01,2013-04-21 21:34:00,
2013-04-21 17:39:00,53.3,25.1,30.53,North,360,0.0,0.0,33,0.00,,BKN240,0.00,VWS V14.01,2013-04-21 21:39:00,
2013-04-21 17:44:00,53.3,24.3,30.53,North,360,0.0,0.0,32,0.00,,BKN240,0.00,VWS V14.01,2013-04-21 21:44:00,
2013-04-21 17:49:00,52.9,24.0,30.54,North,360,0.0,0.0,32,0.00,,BKN240,0.00,VWS V14.01,2013-04-21 21:49:00,
2013-04-21 17:59:00,53.0,25.6,30.54,North,360,0.0,0.0,34,0.00,,BKN250,0.00,VWS V14.01,2013-04-21 21:59:00,
2013-04-21 18:07:00,53.1,26.4,30.54,North,360,0.0,0.0,35,0.00,,BKN250,0.00,VWS V14.01,2013-04-21 22:07:00,
2013-04-21 18:13:00,52.7,28.2,30.54,North,360,0.0,0.0,39,0.00,,BKN250,0.00,VWS V14.01,2013-04-21 22:13:00,
2013-04-21 18:19:00,52.5,26.6,30.54,North,360,0.0,0.0,36,0.00,,BKN250,0.00,VWS V14.01,2013-04-21 22:19:00,
2013-04-21 18:29:00,52.5,28.0,30.54,North,360,0.0,0.0,39,0.00,,BKN250,0.00,VWS V14.01,2013-04-21 22:29:00,
2013-04-21 18:39:00,51.5,25.7,30.55,North,360,0.0,0.0,36,0.00,,BKN250,0.00,VWS V14.01,2013-04-21 22:39:00,
2013-04-21 18:44:00,51.5,25.7,30.55,North,360,0.0,0.0,36,0.00,,BKN250,0.00,VWS V14.01,2013-04-21 22:44:00,
2013-04-21 18:49:00,51.6,27.2,30.55,North,360,0.0,0.0,39,0.00,,BKN250,0.00,VWS V14.01,2013-04-21 22:49:00,
2013-04-21 18:54:00,51.6,27.2,30.55,North,360,0.0,0.0,39,0.00,,BKN250,0.00,VWS V14.01,2013-04-21 22:54:00,
2013-04-21 18:59:00,51.4,26.3,30.55,North,360,0.0,0.0,37,0.00,,BKN240,0.00,VWS V14.01,2013-04-21 22:59:00,
2013-04-21 19:04:00,51.3,24.8,30.55,North,360,0.0,0.0,35,0.00,,BKN240,0.00,VWS V14.01,2013-04-21 23:04:00,
2013-04-21 19:14:00,51.1,25.4,30.55,North,360,0.0,0.0,36,0.00,,BKN240,0.00,VWS V14.01,2013-04-21 23:14:00,
2013-04-21 19:19:00,50.9,24.5,30.55,North,360,0.0,0.0,35,0.00,,BKN240,0.00,VWS V14.01,2013-04-21 23:19:00,
2013-04-21 19:24:00,50.9,25.2,30.55,North,360,0.0,0.0,36,0.00,,BKN240,0.00,VWS V14.01,2013-04-21 23:24:00,
2013-04-21 19:34:00,50.8,25.8,30.55,North,360,0.0,0.0,37,0.00,,BKN240,0.00,VWS V14.01,2013-04-21 23:34:00,
2013-04-21 19:44:00,50.6,24.9,30.56,North,360,0.0,0.0,36,0.00,,BKN240,0.00,VWS V14.01,2013-04-21 23:44:00,
2013-04-21 19:49:00,50.4,25.4,30.56,North,360,0.0,0.0,37,0.00,,BKN240,0.00,VWS V14.01,2013-04-21 23:49:00,
2013-04-21 19:54:00,50.3,24.6,30.56,North,360,0.0,0.0,36,0.00,,BKN240,0.00,VWS V14.01,2013-04-21 23:54:00,
2013-04-21 19:59:00,50.2,24.6,30.56,North,360,0.0,0.0,36,0.00,,BKN250,0.00,VWS V14.01,2013-04-21 23:59:00,
2013-04-21 20:07:00,50.2,25.9,30.56,North,360,0.0,0.0,39,0.00,,BKN250,0.00,VWS V14.01,2013-04-22 00:07:00,
2013-04-21 20:14:00,50.0,25.1,30.56,North,360,0.0,0.0,37,0.00,,BKN250,0.00,VWS V14.01,2013-04-22 00:14:00,
2013-04-21 20:19:00,49.9,24.3,30.56,North,360,0.0,0.0,36,0.00,,BKN250,0.00,VWS V14.01,2013-04-22 00:19:00,
2013-04-21 20:24:00,49.9,25.6,30.56,North,360,0.0,0.0,39,0.00,,BKN250,0.00,VWS V14.01,2013-04-22 00:24:00,
2013-04-21 20:29:00,49.8,24.9,30.56,North,360,0.0,0.0,37,0.00,,BKN250,0.00,VWS V14.01,2013-04-22 00:29:00,
2013-04-21 20:34:00,49.7,25.5,30.57,North,360,0.0,0.0,39,0.00,,BKN250,0.00,VWS V14.01,2013-04-22 00:34:00,
2013-04-21 20:39:00,49.7,25.5,30.57,North,360,0.0,0.0,39,0.00,,BKN250,0.00,VWS V14.01,2013-04-22 00:39:00,
2013-04-21 20:44:00,49.6,25.4,30.57,North,360,0.0,0.0,39,0.00,,BKN250,0.00,VWS V14.01,2013-04-22 00:44:00,
2013-04-21 20:49:00,49.5,24.6,30.57,North,360,0.0,0.0,37,0.00,,BKN250,0.00,VWS V14.01,2013-04-22 00:49:00,
2013-04-21 20:54:00,49.3,25.8,30.57,North,360,0.0,0.0,40,0.00,,BKN250,0.00,VWS V14.01,2013-04-22 00:54:00,
2013-04-21 20:59:00,49.2,26.9,30.57,North,360,0.0,0.0,42,0.00,,BKN250,0.00,VWS V14.01,2013-04-22 00:59:00,
2013-04-21 21:07:00,49.3,25.8,30.57,North,360,0.0,0.0,40,0.00,,BKN250,0.00,VWS V14.01,2013-04-22 01:07:00,
2013-04-21 21:14:00,49.1,26.2,30.57,North,360,0.0,0.0,41,0.00,,BKN250,0.00,VWS V14.01,2013-04-22 01:14:00,
2013-04-21 21:19:00,49.0,26.8,30.58,North,360,0.0,0.0,42,0.00,,BKN250,0.00,VWS V14.01,2013-04-22 01:19:00,
2013-04-21 21:24:00,49.0,26.1,30.58,North,360,0.0,0.0,41,0.00,,BKN250,0.00,VWS V14.01,2013-04-22 01:24:00,
2013-04-21 21:29:00,49.0,26.1,30.58,North,360,0.0,0.0,41,0.00,,BKN250,0.00,VWS V14.01,2013-04-22 01:29:00,
2013-04-21 21:34:00,48.9,26.0,30.58,North,360,0.0,0.0,41,0.00,,BKN250,0.00,VWS V14.01,2013-04-22 01:34:00,
2013-04-21 21:39:00,48.8,27.2,30.58,North,360,0.0,0.0,43,0.00,,BKN250,0.00,VWS V14.01,2013-04-22 01:39:00,
2013-04-21 21:44:00,48.7,28.3,30.58,North,360,0.0,0.0,45,0.00,,BKN250,0.00,VWS V14.01,2013-04-22 01:44:00,
2013-04-21 21:49:00,48.6,28.2,30.58,North,360,0.0,0.0,45,0.00,,BKN250,0.00,VWS V14.01,2013-04-22 01:49:00,
2013-04-21 21:54:00,48.4,28.6,30.58,North,360,0.0,0.0,46,0.00,,BKN250,0.00,VWS V14.01,2013-04-22 01:54:00,
2013-04-21 21:59:00,48.4,28.0,30.58,North,360,0.0,0.0,45,0.00,,BKN250,0.00,VWS V14.01,2013-04-22 01:59:00,
2013-04-21 22:07:00,48.4,27.4,30.58,North,360,0.0,0.0,44,0.00,,BKN250,0.00,VWS V14.01,2013-04-22 02:07:00,
2013-04-21 22:14:00,48.4,29.1,30.58,North,360,0.0,0.0,47,0.00,,BKN250,0.00,VWS V14.01,2013-04-22 02:14:00,
2013-04-21 22:19:00,48.4,28.6,30.58,North,360,0.0,0.0,46,0.00,,BKN250,0.00,VWS V14.01,2013-04-22 02:19:00,
2013-04-21 22:26:00,48.4,28.0,30.58,North,360,0.0,0.0,45,0.00,,BKN250,0.00,VWS V14.01,2013-04-22 02:26:00,
2013-04-21 22:34:00,48.2,29.5,30.59,North,360,0.0,0.0,48,0.00,,BKN250,0.00,VWS V14.01,2013-04-22 02:34:00,
2013-04-21 22:39:00,48.3,27.9,30.59,North,360,0.0,0.0,45,0.00,,BKN250,0.00,VWS V14.01,2013-04-22 02:39:00,
2013-04-21 22:44:00,48.3,29.0,30.59,North,360,0.0,0.0,47,0.00,,BKN250,0.00,VWS V14.01,2013-04-22 02:44:00,
2013-04-21 22:54:00,48.0,28.8,30.59,North,360,0.0,0.0,47,0.00,,BKN250,0.00,VWS V14.01,2013-04-22 02:54:00,
2013-04-21 22:59:00,48.2,28.9,30.59,North,360,0.0,0.0,47,0.00,,BKN250,0.00,VWS V14.01,2013-04-22 02:59:00,
2013-04-21 23:07:00,48.4,29.7,30.59,North,360,0.0,0.0,48,0.00,,BKN250,0.00,VWS V14.01,2013-04-22 03:07:00,
2013-04-21 23:14:00,47.8,31.2,30.59,North,360,0.0,0.0,52,0.00,,BKN250,0.00,VWS V14.01,2013-04-22 03:14:00,
2013-04-21 23:19:00,47.3,31.7,30.59,North,360,0.0,0.0,54,0.00,,BKN250,0.00,VWS V14.01,2013-04-22 03:19:00,
2013-04-21 23:24:00,47.2,33.0,30.59,North,360,0.0,0.0,58,0.00,,BKN250,0.00,VWS V14.01,2013-04-22 03:24:00,
2013-04-21 23:29:00,47.0,32.8,30.59,North,360,0.0,0.0,58,0.00,,BKN250,0.00,VWS V14.01,2013-04-22 03:29:00,
2013-04-21 23:34:00,46.8,33.5,30.59,North,360,0.0,0.0,60,0.00,,BKN250,0.00,VWS V14.01,2013-04-22 03:34:00,
2013-04-21 23:39:00,46.7,33.5,30.59,North,360,0.0,0.0,60,0.00,,BKN250,0.00,VWS V14.01,2013-04-22 03:39:00,
2013-04-21 23:49:00,46.4,34.0,30.59,North,360,0.0,0.0,62,0.00,,BKN250,0.00,VWS V14.01,2013-04-22 03:49:00,
2013-04-21 23:54:00,46.3,33.9,30.60,North,360,0.0,0.0,62,0.00,,BKN250,0.00,VWS V14.01,2013-04-22 03:54:00,
2013-04-21 23:59:00,46.1,33.8,30.60,North,360,0.0,0.0,62,0.00,,BKN250,0.00,VWS V14.01,2013-04-22 03:59:00,